Location: Prescott
(34.5400°N, 112.4680°W)
Time: 00:40:16
(UTC-07:00)

Amateur Radio Satellites - All Passes

Search period start: 12 February 2016 00:10
Search period end: 13 February 2016 00:10
Location: Prescott, 34.5400°N, 112.4680°W

Satellite Date Start Highest point End Downlink Frequencies (MHz)
Time Altitude Azimuth
VELOX 1 12 Feb 00:10:28 00:13:55 22° 264° (W) 00:17:22 145.980
UNISAT 6 12 Feb 00:26:22 00:26:38 10° 295° (WNW) 00:26:53 437.425
UKube-1 12 Feb 00:28:51 00:31:11 14° 266° (W) 00:33:29 .
AISAT 12 Feb 00:29:05 00:31:11 13° 267° (W) 00:33:18 437.250
TISAT 1 12 Feb 00:32:07 00:36:18 65° 75° (ENE) 00:40:29 437.305
SPROUT 12 Feb 00:32:10 00:36:14 41° 261° (W) 00:40:18 437.525
PHONESAT 2.4 12 Feb 00:32:37 00:35:53 69° 338° (NNW) 00:39:09 2401.200-2431.200
POPSAT HIP 1 12 Feb 00:38:39 00:42:12 27° 289° (WNW) 00:45:45 437.405
ITUPSAT 1 12 Feb 00:41:20 00:43:45 14° 65° (ENE) 00:46:10 437.325
NANOSAT C BR1 12 Feb 00:41:58 00:45:25 25° 289° (WNW) 00:48:52 145.865
DUCHIFAT 1 12 Feb 00:42:18 00:45:47 26° 289° (WNW) 00:49:17 145.980
CUBEBUG 1 12 Feb 00:42:40 00:44:12 12° 268° (W) 00:45:44 437.445
CUSAT 1 12 Feb 00:42:54 00:49:26 29° 87° (E) 00:56:03 437.405
Oscar 19 12 Feb 00:45:15 00:47:52 14° 93° (E) 00:50:29 437.125/150
BEESAT 12 Feb 00:47:36 00:50:36 17° 66° (ENE) 00:53:35 436.000
QB50P1 12 Feb 00:51:31 00:54:33 20° 291° (WNW) 00:57:34 145.935-145.965
JAS-2 12 Feb 01:14:23 01:18:10 19° 93° (E) 01:21:49 435.910
Gurwin Techsat 1B 12 Feb 01:34:28 01:37:44 16° 93° (E) 01:40:59 435.225
DANDE 12 Feb 01:34:44 01:41:50 42° 89° (E) 01:49:37 436.750
BUGSAT 1 12 Feb 01:35:30 01:37:11 12° 293° (WNW) 01:38:51 437.445
SWISSCUBE 12 Feb 01:38:14 01:42:56 66° 75° (ENE) 01:47:41 437.505
BEESAT 3 12 Feb 01:44:38 01:48:22 39° 57° (ENE) 01:52:04 437.485
ITAMSAT 1 12 Feb 01:59:18 02:01:54 14° 93° (E) 02:04:28 435.822/435.867
Cosmos 2491 12 Feb 02:01:30 02:09:54 48° 78° (ENE) 02:18:17 435.465 / 435.565
PHONESAT 2.4 12 Feb 02:10:33 02:13:27 28° 355° (N) 02:16:22 2401.200-2431.200
BEESAT 2 12 Feb 02:13:02 02:16:58 53° 59° (ENE) 02:20:49 435.950
ITUPSAT 1 12 Feb 02:16:27 02:21:05 53° 259° (W) 02:25:47 437.325
Oscar 19 12 Feb 02:22:29 02:27:29 55° 287° (WNW) 02:32:27 437.125/150
BEESAT 12 Feb 02:23:28 02:27:59 43° 261° (W) 02:32:32 436.000
CUSAT 1 12 Feb 02:23:29 02:31:15 56° 282° (WNW) 02:39:08 437.405
YUBILEINY 12 Feb 02:45:44 02:53:54 45° 88° (E) 03:02:07 435.215
AIST 2 12 Feb 02:50:29 02:52:42 14° 49° (NE) 02:54:54 435.215
JAS-2 12 Feb 02:58:25 03:03:30 39° 290° (WNW) 03:08:18 435.910
STARS 12 Feb 03:00:59 03:04:49 30° 71° (ENE) 03:08:39 437.465
Gurwin Techsat 1B 12 Feb 03:12:47 03:17:56 51° 287° (WNW) 03:23:03 435.225
DANDE 12 Feb 03:17:33 03:24:44 40° 286° (WNW) 03:32:35 436.750
SWISSCUBE 12 Feb 03:20:57 03:21:08 10° 269° (W) 03:21:17 437.505
KKS-1 12 Feb 03:23:50 03:28:18 73° 259° (W) 03:32:46 437.445
BEESAT 3 12 Feb 03:23:52 03:25:44 13° 252° (WSW) 03:27:35 437.485
MOZHAYETS 4 12 Feb 03:35:06 03:39:30 51° 74° (ENE) 03:43:57
ITAMSAT 1 12 Feb 03:36:32 03:41:40 59° 287° (WNW) 03:46:48 435.822/435.867
PHONESAT 2.4 12 Feb 03:48:08 03:51:11 35° 12° (NNE) 03:54:13 2401.200-2431.200
Cosmos 2491 12 Feb 03:58:57 04:06:19 32° 275° (W) 04:13:43 435.465 / 435.565
AO-7 12 Feb 04:04:09 04:12:20 58° 103° (ESE) 04:20:26 29.400- 29.500
M-CUBED/EXP-1 PRIME 12 Feb 04:10:17 04:13:00 21° 102° (ESE) 04:15:51 437.505
AUBIESAT-1 12 Feb 04:17:47 04:20:35 21° 102° (ESE) 04:23:30 437.475
CUBESAT XI-V 12 Feb 04:24:17 04:27:13 17° 67° (ENE) 04:30:08 437.345
AIST 2 12 Feb 04:27:28 04:31:28 49° 245° (WSW) 04:35:24 435.215
SO-50 12 Feb 04:28:01 04:32:53 82° 117° (ESE) 04:37:51 436.795
STARS 12 Feb 04:37:59 04:41:11 20° 265° (W) 04:44:23 437.465
Cosmos 2504 12 Feb 04:40:30 04:48:43 54° 90° (E) 04:57:17 435.465 / 435.565
YUBILEINY 12 Feb 04:43:00 04:50:45 34° 286° (WNW) 04:58:35 435.215
HORYU 2 12 Feb 04:45:38 04:50:02 59° 101° (E) 04:54:25 437.375
MOZHAYETS 4 12 Feb 05:15:06 05:16:56 12° 268° (W) 05:18:46
PHONESAT 2.4 12 Feb 05:25:20 05:28:34 61° 207° (SSW) 05:31:47 2401.200-2431.200
CUTE-I 12 Feb 05:34:35 05:37:13 14° 92° (E) 05:39:50 437.470
M-CUBED/EXP-1 PRIME 12 Feb 05:45:00 05:47:31 19° 293° (WNW) 05:50:09 437.505
Cubesat XI-IV 12 Feb 05:48:07 05:51:55 19° 94° (E) 05:55:42 437.490
AUBIESAT-1 12 Feb 05:52:28 05:55:02 19° 293° (WNW) 05:57:43 437.475
AO-7 12 Feb 05:57:48 06:04:33 29° 300° (WNW) 06:11:18 29.400- 29.500
CUBESAT XI-V 12 Feb 05:59:45 06:04:12 42° 261° (W) 06:08:41 437.345
STRAND 1 12 Feb 06:04:47 06:08:55 25° 68° (ENE) 06:13:05 437.568
SO-50 12 Feb 06:11:41 06:13:59 13° 315° (NW) 06:16:18 436.795
HORYU 2 12 Feb 06:24:46 06:26:03 11° 295° (WNW) 06:27:21 437.375
PRISM 12 Feb 06:30:05 06:30:37 10° 65° (ENE) 06:31:08 437.425
LilacSat-2 12 Feb 06:33:11 06:36:52 48° 100° (E) 06:40:31 437.200
Cosmos 2504 12 Feb 06:35:10 06:42:25 30° 288° (WNW) 06:49:56 435.465 / 435.565
BRITE-PL 12 Feb 07:02:29 07:07:01 58° 100° (E) 07:11:13 437.365/2234.400
O/OREOS (USA 219) 12 Feb 07:04:39 07:08:34 31° 103° (ESE) 07:12:31 437.305
CUTE-I 12 Feb 07:12:18 07:17:36 62° 286° (WNW) 07:22:54 437.470
DOVE 4 12 Feb 07:23:35 07:26:41 20° 95° (E) 07:29:45 437.250
HO-68 12 Feb 07:26:20 07:30:34 16° 92° (E) 07:34:46 435.675
Cubesat XI-IV 12 Feb 07:27:02 07:32:09 45° 288° (WNW) 07:37:13 437.490
STRAND 1 12 Feb 07:43:24 07:47:54 32° 263° (W) 07:52:28 437.568
JUGNU 12 Feb 07:45:41 07:49:17 16° 172° (S) 07:52:52 437.505
GOMX 1 12 Feb 07:54:49 07:59:08 73° 283° (WNW) 08:03:16 467.674
CINEMA 3 12 Feb 07:58:52 08:01:32 16° 95° (E) 08:04:12 145.822/145.860
PRISM 12 Feb 08:01:20 08:05:25 56° 260° (W) 08:09:32 437.425
GONETS M04 12 Feb 08:11:59 08:19:38 36° 86° (E) 08:27:18
CANX-2 12 Feb 08:14:03 08:18:02 36° 98° (E) 08:22:01 2200.000
BRITE-PL 12 Feb 08:43:45 08:44:50 11° 297° (WNW) 08:45:55 437.365/2234.400
O/OREOS (USA 219) 12 Feb 08:44:38 08:47:58 20° 299° (WNW) 08:51:21 437.305
COMPASS 1 12 Feb 08:46:40 08:50:41 41° 99° (E) 08:54:41 437.405
DOVE 4 12 Feb 09:00:58 09:04:22 25° 289° (WNW) 09:07:44 437.250
CUTE 1.7 + AOD 2 12 Feb 09:04:01 09:08:15 61° 284° (WNW) 09:12:29 437.475
SEEDS 12 Feb 09:05:32 09:09:49 80° 281° (WNW) 09:14:04 437.485
Oscar 11 12 Feb 09:07:04 09:10:31 23° 96° (E) 09:13:57 145.826/435.025
HO-68 12 Feb 09:11:38 09:18:50 76° 287° (WNW) 09:25:59 435.675
AAUSAT CUBESAT 2 12 Feb 09:12:34 09:16:47 72° 102° (ESE) 09:20:57 437.432
UWE-3 12 Feb 09:18:19 09:22:13 34° 98° (E) 09:26:11 435.000/436.395/437.385
CUBEBUG 2 12 Feb 09:23:07 09:27:17 57° 100° (E) 09:31:33 437.445
SRMSAT 12 Feb 09:27:11 09:30:25 15° 169° (S) 09:33:38 437.500
AO-85 12 Feb 09:29:10 09:34:14 51° 114° (ESE) 09:39:32 145.980
Cosmos 2499 12 Feb 09:33:25 09:41:49 56° 90° (E) 09:50:25 435.465 / 435.565
JUGNU 12 Feb 09:33:35 09:37:36 19° 182° (S) 09:41:36 437.505
CINEMA 3 12 Feb 09:35:02 09:38:43 31° 287° (WNW) 09:42:27 145.822/145.860
PCSat 12 Feb 09:37:03 09:41:37 29° 108° (ESE) 09:46:13 145.827
UNISAT 6 12 Feb 09:41:50 09:45:45 34° 72° (ENE) 09:49:37 437.425
CANX-2 12 Feb 09:50:58 09:53:34 16° 292° (WNW) 09:56:11 2200.000
NANOSAT C BR1 12 Feb 09:57:51 09:58:43 11° 66° (ENE) 09:59:35 145.865
HUMSAT D 12 Feb 10:01:54 10:05:03 20° 95° (E) 10:08:12 437.325/437.525
DELFI C3 12 Feb 10:04:59 10:08:59 59° 100° (E) 10:12:58 145.870
QB50P1 12 Feb 10:05:47 10:08:03 14° 67° (ENE) 10:10:18 145.935-145.965
ZACube-1 12 Feb 10:05:53 10:10:09 89° 295° (WNW) 10:14:30 437.345
GONETS M04 12 Feb 10:08:08 10:16:12 42° 283° (WNW) 10:24:21
RS-15 12 Feb 10:10:43 10:20:15 35° 105° (ESE) 10:30:08 29.354- 29.394
FUNcube-1 12 Feb 10:13:31 10:17:45 76° 284° (WNW) 10:22:05 145.935
COMPASS 1 12 Feb 10:23:44 10:25:51 14° 293° (WNW) 10:28:00 437.405
AIST 1 12 Feb 10:24:46 10:29:03 56° 94° (E) 10:33:23
ANTELSAT 12 Feb 10:26:23 10:30:40 66° 259° (WSW) 10:34:56 437.575/2403.000
TIGRISAT 12 Feb 10:32:19 10:36:35 59° 259° (W) 10:40:48 435.000
Oscar 11 12 Feb 10:42:58 10:46:33 25° 289° (WNW) 10:50:07 145.826/435.025
BUGSAT 1 12 Feb 10:45:25 10:48:24 19° 69° (ENE) 10:51:24 437.445
AISAT 12 Feb 10:46:30 10:47:49 11° 92° (E) 10:49:09 437.250
UWE-3 12 Feb 10:55:44 10:58:24 16° 291° (WNW) 11:01:06 435.000/436.395/437.385
POLYITAN 1 12 Feb 10:57:22 11:01:32 61° 75° (ENE) 11:05:41 437.675
CUBEBUG 1 12 Feb 10:57:40 10:59:23 12° 92° (E) 11:01:06 437.445
QB50P2 12 Feb 10:57:50 11:02:02 64° 75° (ENE) 11:06:13 145.880/145.840
DX 1 12 Feb 10:59:32 11:02:23 17° 95° (E) 11:05:12 434.975-435.025
HO-68 12 Feb 11:02:44 11:05:20 12° 304° (NW) 11:07:56 435.675
CUBEBUG 2 12 Feb 11:03:09 11:03:26 10° 294° (WNW) 11:03:43 437.445
AO-85 12 Feb 11:10:53 11:15:03 23° 311° (NW) 11:19:20 145.980
SRMSAT 12 Feb 11:14:50 11:18:52 19° 180° (S) 11:22:54 437.500
ESTCUBE 1 12 Feb 11:17:13 11:21:15 31° 97° (E) 11:25:15 437.505/2401.250
50 SAT 12 Feb 11:19:04 11:22:32 33° 98° (E) 11:26:01 437.505
UNISAT 6 12 Feb 11:19:53 11:22:32 16° 266° (W) 11:25:11 437.425
PCSat 12 Feb 11:20:02 11:24:52 33° 303° (WNW) 11:29:45 145.827
JUGNU 12 Feb 11:22:58 11:25:53 14° 192° (SSW) 11:28:48 437.505
POPSAT HIP 1 12 Feb 11:26:53 11:31:03 59° 259° (W) 11:35:13 437.405
Cosmos 2499 12 Feb 11:27:59 11:35:16 29° 288° (WNW) 11:42:44 435.465 / 435.565
NANOSAT C BR1 12 Feb 11:29:48 11:33:57 55° 260° (W) 11:38:06 145.865
DUCHIFAT 1 12 Feb 11:29:56 11:34:05 58° 260° (W) 11:38:14 145.980
HUMSAT D 12 Feb 11:37:07 11:40:37 26° 289° (WNW) 11:44:10 437.325/437.525
QB50P1 12 Feb 11:39:29 11:43:28 40° 261° (W) 11:47:27 145.935-145.965
Oscar 19 12 Feb 11:58:53 12:01:53 16° 65° (ENE) 12:04:54 437.125/150
VELOX 1 12 Feb 12:02:57 12:07:23 88° 284° (WNW) 12:11:47 145.980
AIST 1 12 Feb 12:06:54 12:07:00 10° 288° (WNW) 12:07:05
UKube-1 12 Feb 12:17:13 12:21:30 65° 285° (WNW) 12:25:45 .
BUGSAT 1 12 Feb 12:19:57 12:23:35 28° 263° (W) 12:27:12 437.445
AISAT 12 Feb 12:20:18 12:24:34 51° 286° (WNW) 12:28:48 437.250
RS-15 12 Feb 12:21:04 12:31:57 59° 305° (NW) 12:43:28 29.354- 29.394
TISAT 1 12 Feb 12:21:32 12:23:26 13° 93° (E) 12:25:20 437.305
SPROUT 12 Feb 12:21:42 12:25:44 41° 99° (E) 12:29:44 437.525
DANDE 12 Feb 12:22:23 12:26:59 20° 65° (ENE) 12:30:46 436.750
CUBEBUG 1 12 Feb 12:31:43 12:35:54 46° 286° (WNW) 12:40:02 437.445
DX 1 12 Feb 12:34:42 12:38:38 33° 288° (WNW) 12:42:31 434.975-435.025
Gurwin Techsat 1B 12 Feb 12:52:13 12:55:55 20° 66° (ENE) 12:59:37 435.225
50 SAT 12 Feb 12:54:20 12:56:14 13° 292° (WNW) 12:58:08 437.505
ESTCUBE 1 12 Feb 12:54:28 12:57:50 21° 291° (WNW) 13:01:11 437.505/2401.250
YUBILEINY 12 Feb 13:01:42 13:07:17 18° 67° (ENE) 13:12:50 435.215
SO-50 12 Feb 13:03:30 13:07:39 28° 53° (NE) 13:11:40 436.795
JAS-2 12 Feb 13:03:50 13:11:19 58° 73° (ENE) 13:18:10 435.910
SRMSAT 12 Feb 13:03:58 13:07:19 16° 190° (S) 13:10:42 437.500
CUSAT 1 12 Feb 13:06:46 13:11:58 77° 264° (W) 13:15:49 437.405
ITAMSAT 1 12 Feb 13:14:01 13:17:04 16° 64° (ENE) 13:20:06 435.822/435.867
AO-7 12 Feb 13:14:58 13:16:04 10° 49° (NE) 13:17:10 29.400- 29.500
Oscar 19 12 Feb 13:35:39 13:40:43 55° 259° (W) 13:45:48 437.125/150
SWISSCUBE 12 Feb 13:42:43 13:46:27 22° 96° (E) 13:50:10 437.505
TISAT 1 12 Feb 13:55:21 13:59:16 40° 287° (WNW) 14:03:09 437.305
SPROUT 12 Feb 13:59:07 14:01:19 14° 293° (WNW) 14:03:31 437.525
DANDE 12 Feb 14:04:29 14:10:23 42° 271° (W) 14:14:51 436.750
ITUPSAT 1 12 Feb 14:20:22 14:25:04 51° 100° (E) 14:29:44 437.325
BEESAT 12 Feb 14:26:49 14:31:34 62° 102° (ESE) 14:36:18 436.000
Gurwin Techsat 1B 12 Feb 14:30:25 14:35:28 45° 260° (W) 14:40:34 435.225
RS-15 12 Feb 14:40:25 14:47:43 18° 334° (NNW) 14:55:17 29.354- 29.394
Cosmos 2504 12 Feb 14:40:30 14:44:54 15° 65° (ENE) 14:49:09 435.465 / 435.565
SO-50 12 Feb 14:44:03 14:48:02 27° 249° (WSW) 14:51:54 436.795
ISS 12 Feb 14:47:03 14:50:18 73° 319° (NW) 14:53:32 145.825
JAS-2 12 Feb 14:50:31 14:56:27 24° 265° (W) 15:02:05 435.910
ITAMSAT 1 12 Feb 14:50:58 14:56:01 55° 259° (W) 15:01:08 435.822/435.867
M-CUBED/EXP-1 PRIME 12 Feb 14:55:24 14:57:32 15° 66° (ENE) 14:59:36 437.505
YUBILEINY 12 Feb 14:56:12 15:05:04 82° 267° (W) 15:13:51 435.215
Cosmos 2491 12 Feb 14:57:49 15:06:21 63° 92° (E) 15:14:54 435.465 / 435.565
AO-7 12 Feb 14:58:56 15:07:04 58° 68° (ENE) 15:15:12 29.400- 29.500
AUBIESAT-1 12 Feb 15:02:31 15:04:36 15° 66° (ENE) 15:06:37 437.475
KKS-1 12 Feb 15:18:47 15:22:33 27° 97° (E) 15:26:18 437.445
SWISSCUBE 12 Feb 15:20:00 15:24:14 32° 290° (WNW) 15:28:27 437.505
BEESAT 3 12 Feb 15:33:44 15:36:13 16° 110° (ESE) 15:38:45 437.485
MOZHAYETS 4 12 Feb 15:34:49 15:37:43 16° 93° (E) 15:40:35
HORYU 2 12 Feb 15:40:25 15:44:23 34° 72° (ENE) 15:48:24 437.375
ITUPSAT 1 12 Feb 15:59:48 16:02:26 15° 295° (WNW) 16:05:03 437.325
BEESAT 2 12 Feb 16:02:45 16:05:53 22° 111° (ESE) 16:09:03 435.950
BEESAT 12 Feb 16:06:54 16:08:47 12° 296° (WNW) 16:10:39 436.000
ISS 12 Feb 16:26:31 16:27:13 10° 335° (NNW) 16:27:55 145.825
M-CUBED/EXP-1 PRIME 12 Feb 16:28:56 16:32:00 25° 257° (WSW) 16:34:55 437.505
STARS 12 Feb 16:29:28 16:33:50 83° 283° (WNW) 16:38:12 437.465
Cosmos 2504 12 Feb 16:31:01 16:39:33 89° 84° (E) 16:47:25 435.465 / 435.565
AUBIESAT-1 12 Feb 16:35:57 16:39:00 25° 257° (WSW) 16:41:55 437.475
CUTE-I 12 Feb 16:52:57 16:56:18 17° 65° (ENE) 16:59:39 437.470
AO-7 12 Feb 16:53:21 17:00:07 27° 263° (W) 17:06:56 29.400- 29.500
KKS-1 12 Feb 16:55:32 16:58:58 22° 291° (WNW) 17:02:22 437.445
Cosmos 2491 12 Feb 16:57:00 17:03:42 24° 289° (WNW) 17:10:27 435.465 / 435.565
YUBILEINY 12 Feb 16:57:07 17:00:22 13° 283° (WNW) 17:03:38 435.215
RS-15 12 Feb 17:02:15 17:07:34 13° 12° (NNE) 17:12:57 29.354- 29.394
Cubesat XI-IV 12 Feb 17:06:46 17:10:53 23° 67° (ENE) 17:15:02 437.490
BEESAT 3 12 Feb 17:10:05 17:13:42 33° 304° (NW) 17:17:19 437.485
MOZHAYETS 4 12 Feb 17:10:39 17:15:00 40° 287° (WNW) 17:19:20
LilacSat-2 12 Feb 17:13:14 17:15:27 15° 69° (ENE) 17:17:40 437.200
O/OREOS (USA 219) 12 Feb 17:17:42 17:21:54 34° 65° (ENE) 17:26:04 437.305
HORYU 2 12 Feb 17:18:08 17:21:02 17° 265° (W) 17:23:55 437.375
BEESAT 2 12 Feb 17:40:17 17:43:39 25° 306° (NW) 17:47:01 435.950
CUBESAT XI-V 12 Feb 17:59:38 18:04:17 62° 101° (E) 18:08:53 437.345
AO-85 12 Feb 18:05:45 18:09:23 19° 48° (NE) 18:12:47 145.980
BRITE-PL 12 Feb 18:08:10 18:13:39 51° 74° (ENE) 18:19:00 437.365/2234.400
STRAND 1 12 Feb 18:21:07 18:22:16 11° 91° (E) 18:23:26 437.568
AIST 2 12 Feb 18:21:16 18:25:26 80° 118° (ESE) 18:29:37 435.215
DOVE 4 12 Feb 18:25:39 18:29:00 18° 69° (ENE) 18:32:15 437.250
Cosmos 2504 12 Feb 18:27:42 18:31:30 14° 283° (WNW) 18:35:12 435.465 / 435.565
GONETS M04 12 Feb 18:28:23 18:32:32 14° 65° (ENE) 18:36:40
PCSat 12 Feb 18:29:35 18:32:00 13° 47° (NE) 18:34:25 145.827
CUTE-I 12 Feb 18:30:41 18:35:51 53° 260° (W) 18:41:05 437.470
Cubesat XI-IV 12 Feb 18:45:47 18:50:41 37° 262° (W) 18:55:38 437.490
LilacSat-2 12 Feb 18:46:10 18:49:30 29° 263° (W) 18:52:51 437.200
O/OREOS (USA 219) 12 Feb 18:57:50 19:01:00 18° 260° (W) 19:04:09 437.305
GOMX 1 12 Feb 18:57:57 19:03:22 80° 77° (ENE) 19:08:33 467.674
CINEMA 3 12 Feb 18:58:42 19:00:16 12° 67° (ENE) 19:01:48 145.822/145.860
CANX-2 12 Feb 19:04:28 19:07:13 17° 69° (ENE) 19:09:59 2200.000
RS-15 12 Feb 19:14:34 19:25:26 36° 45° (NE) 19:36:23 29.354- 29.394
Cosmos 2499 12 Feb 19:32:27 19:36:30 14° 64° (ENE) 19:40:24 435.465 / 435.565
COMPASS 1 12 Feb 19:35:01 19:37:51 18° 69° (ENE) 19:40:44 437.405
HO-68 12 Feb 19:35:53 19:42:51 57° 70° (ENE) 19:49:51 435.675
CUBESAT XI-V 12 Feb 19:39:31 19:41:05 12° 295° (WNW) 19:42:39 437.345
AO-85 12 Feb 19:45:25 19:50:13 49° 246° (WSW) 19:54:36 145.980
PRISM 12 Feb 19:47:03 19:50:29 24° 97° (E) 19:53:53 437.425
BRITE-PL 12 Feb 19:48:21 19:52:15 19° 267° (W) 19:56:08 437.365/2234.400
CUTE 1.7 + AOD 2 12 Feb 19:52:56 19:57:03 58° 75° (ENE) 20:01:12 437.475
SEEDS 12 Feb 19:53:46 19:57:42 42° 74° (ENE) 20:01:41 437.485
STRAND 1 12 Feb 19:56:44 20:01:53 71° 285° (WNW) 20:07:00 437.568
AAUSAT CUBESAT 2 12 Feb 19:59:44 20:03:18 29° 72° (ENE) 20:06:53 437.432
Oscar 11 12 Feb 20:00:18 20:01:54 12° 66° (ENE) 20:03:30 145.826/435.025
DOVE 4 12 Feb 20:01:33 20:06:24 43° 261° (W) 20:11:01 437.250
PCSat 12 Feb 20:10:39 20:16:06 87° 246° (WSW) 20:21:31 145.827
UWE-3 12 Feb 20:12:57 20:15:53 18° 69° (ENE) 20:18:47 435.000/436.395/437.385
CUBEBUG 2 12 Feb 20:18:10 20:21:56 30° 72° (ENE) 20:25:38 437.445
GONETS M04 12 Feb 20:21:47 20:30:39 83° 83° (E) 20:39:30
CINEMA 3 12 Feb 20:32:25 20:36:58 56° 260° (W) 20:41:20 145.822/145.860
CANX-2 12 Feb 20:39:02 20:42:48 32° 263° (W) 20:46:36 2200.000
GOMX 1 12 Feb 20:41:32 20:41:48 10° 269° (W) 20:42:04 467.674
DELFI C3 12 Feb 20:48:32 20:51:33 21° 70° (ENE) 20:54:36 145.870
ZACube-1 12 Feb 20:58:22 21:02:21 43° 74° (ENE) 21:06:18 437.345
FUNcube-1 12 Feb 21:05:36 21:09:40 50° 75° (ENE) 21:13:41 145.935
COMPASS 1 12 Feb 21:09:35 21:13:12 29° 263° (W) 21:16:51 437.405
ISS 12 Feb 21:17:51 21:20:35 24° 35° (NE) 21:23:19 145.825
PRISM 12 Feb 21:22:28 21:25:40 22° 291° (WNW) 21:28:50 437.425
Cosmos 2499 12 Feb 21:22:37 21:30:53 90° 82° (E) 21:38:27 435.465 / 435.565
HO-68 12 Feb 21:25:27 21:30:51 23° 265° (W) 21:36:19 435.675
RS-15 12 Feb 21:26:43 21:38:50 71° 247° (WSW) 21:51:00 29.354- 29.394
SEEDS 12 Feb 21:31:54 21:33:36 12° 268° (W) 21:35:18 437.485
Oscar 11 12 Feb 21:33:23 21:37:32 50° 260° (W) 21:41:44 145.826/435.025
AAUSAT CUBESAT 2 12 Feb 21:35:58 21:38:48 18° 266° (W) 21:41:39 437.432
UWE-3 12 Feb 21:48:25 21:52:08 29° 263° (W) 21:55:49 435.000/436.395/437.385
DX 1 12 Feb 21:54:14 21:54:46 10° 64° (ENE) 21:55:18 434.975-435.025
CUBEBUG 2 12 Feb 21:55:39 21:58:34 18° 265° (W) 22:01:28 437.445
50 SAT 12 Feb 21:58:57 21:59:20 10° 67° (ENE) 21:59:43 437.505
PHONESAT 2.4 12 Feb 22:02:56 22:04:13 12° 141° (SE) 22:05:29 2401.200-2431.200
AIST 1 12 Feb 22:12:54 22:17:08 55° 266° (W) 22:21:18
ESTCUBE 1 12 Feb 22:14:00 22:17:14 20° 68° (ENE) 22:20:29 437.505/2401.250
GONETS M04 12 Feb 22:21:16 22:26:17 17° 281° (W) 22:31:19
ANTELSAT 12 Feb 22:21:33 22:25:29 31° 98° (E) 22:29:29 437.575/2403.000
DELFI C3 12 Feb 22:23:11 22:26:20 22° 264° (W) 22:29:30 145.870
HUMSAT D 12 Feb 22:24:18 22:28:19 60° 259° (W) 22:32:21 437.325/437.525
TIGRISAT 12 Feb 22:27:12 22:31:12 35° 98° (E) 22:35:17 435.000
ZACube-1 12 Feb 22:37:15 22:38:49 12° 267° (W) 22:40:22 437.345
POLYITAN 1 12 Feb 22:47:46 22:49:38 13° 93° (E) 22:51:31 437.675
QB50P2 12 Feb 22:48:04 22:50:08 13° 93° (E) 22:52:12 145.880/145.840
ISS 12 Feb 22:54:14 22:56:58 25° 230° (SW) 22:59:42 145.825
VELOX 1 12 Feb 22:56:35 23:00:55 52° 74° (ENE) 23:05:16 145.980
UKube-1 12 Feb 23:07:58 23:12:16 65° 75° (ENE) 23:16:34 .
SPROUT 12 Feb 23:12:37 23:15:50 21° 70° (ENE) 23:19:04 437.525
UNISAT 6 12 Feb 23:12:52 23:17:12 62° 284° (WNW) 23:21:37 437.425
AISAT 12 Feb 23:13:44 23:18:12 88° 75° (ENE) 23:22:42 437.250
POPSAT HIP 1 12 Feb 23:15:36 23:19:12 27° 97° (E) 23:22:48 437.405
DUCHIFAT 1 12 Feb 23:18:02 23:21:37 27° 97° (E) 23:25:11 145.980
NANOSAT C BR1 12 Feb 23:18:06 23:21:45 29° 97° (E) 23:25:23 145.865
Cosmos 2499 12 Feb 23:19:16 23:22:33 13° 283° (WNW) 23:25:46 435.465 / 435.565
CUBEBUG 1 12 Feb 23:23:34 23:28:01 90° 86° (E) 23:32:28 437.445
DX 1 12 Feb 23:26:03 23:30:23 63° 259° (W) 23:34:45 434.975-435.025
QB50P1 12 Feb 23:27:38 23:31:35 39° 99° (E) 23:35:31 145.935-145.965
50 SAT 12 Feb 23:29:24 23:32:54 42° 261° (W) 23:36:27 437.505
PHONESAT 2.4 12 Feb 23:37:48 23:41:04 76° 155° (SSE) 23:44:21 2401.200-2431.200
RS-15 12 Feb 23:44:43 23:49:06 13° 264° (W) 23:53:29 29.354- 29.394
ESTCUBE 1 12 Feb 23:49:43 23:53:47 33° 263° (W) 23:57:53 437.505/2401.250
ANTELSAT 12 Feb 23:58:51 00:01:58 19° 291° (WNW) 00:05:08 437.575/2403.000
